{"data":{"norad_id":65744,"intl_designator":"2025-216L","name":"STARLINK-35173","alt_names":[],"object_type":"PAYLOAD","status":"ACTIVE","operator":null,"country":"US","launch_date":"2025-09-25","launch_site_code":"AFETR","launch_vehicle":null,"mission":null,"orbit_class":"UNKNOWN","rcs_meters":null,"size_class":null,"mass_kg":null,"dimensions":null,"purposes":["comms"],"wikipedia_slug":null,"has_3d_model":false,"image_url":null,"decayed_at":null,"tle_current":{"epoch":"2026-05-24T23:02:37.059360Z","epoch_age_seconds":78201,"freshness":"FRESH","line1":"1 65744U 25216L   26144.96015115  .00025661  00000+0  87552-3 0  9996","line2":"2 65744  53.1594 338.4324 0001070  89.5421 270.5702 15.30201039 38276","mean_motion":15.30201039,"eccentricity":0.000107,"inclination_deg":53.1594,"raan_deg":338.4324,"arg_perigee_deg":89.5421,"mean_anomaly_deg":270.5702,"bstar":0.00087552,"rev_number":3827,"period_min":94.105281809314,"perigee_km":474.47865881488,"apogee_km":475.94527549385,"semimajor_km":6853.3489671544,"source":"CELESTRAK","updated_at":"2026-05-25T13:38:20.931401Z"}}}